[[{"header":{"parameterUnit":"m.s-1","parameterCategory":2,"la1":30.2991,"la2":30.254,"lo1":-89.0895,"lo2":-89.0444,"dy":0.0017,"dx":0.0017,"nx":28,"ny":28,"refTime":"2024-03-25T03:00:00:Z","depth":"0","parameterNumber":2,"parameterNumberName":"U-component_of_CURRENTS"},"data":[0,0,0,0,0,0,0,0,0,0,0,0,0,0,0,0,0,0,0,0,0,0,0,0,0,0,0,0,0,0,0,0,0,0,0,0,0,0,0,0,0,0,0,0,0,0,0,0,0,0,0,0,0,0,0,0,0,0,0.2685,0.2686,0,0.2793,0.2795,0.2796,0.2878,0.2879,0.288,0.2881,0.2869,0.2868,0.2867,0,0,0,0,0,0,0,0,0,0,0,0,0,0.2584,0.2585,0.2685,0.2687,0.2688,0.2793,0.2795,0.2796,0.2878,0.2879,0.288,0.2881,0.2869,0.2868,0.2867,0,0,0,0,0,0,0,0,0,0,0,0,0,0.2653,0.2586,0.2685,0.2742,0.2748,0.2793,0.2795,0.2796,0.2878,0.2879,0.288,0.2881,0.287,0.2868,0.2867,0.2831,0,0,0.2862,0.2861,0,0,0,0,0,0,0,0,0.2649,0.2656,0.2732,0.2738,0.2745,0.2824,0.2755,0.2802,0.2877,0.2828,0.2881,0.2882,0.2843,0.2843,0.2861,0.2831,0.283,0.2862,0.2861,0.286,0.2859,0,0,0,0,0,0,0,0.2644,0.2652,0.2727,0.2734,0.2742,0.2775,0.2785,0.2765,0.2824,0.2832,0.2839,0.2852,0.2845,0.2863,0.2861,0.283,0.2862,0.286,0.2859,0.2858,0.2813,0.2813,0,0,0,0,0,0,0.2629,0.2647,0.2724,0.273,0.27,0.2775,0.2787,0.2797,0.2827,0.2834,0.2851,0.2855,0.2865,0.2863,0.2861,0.285,0.286,0.2858,0.2857,0.2813,0.2813,0.2813,0,0,0,0,0,0,0.2626,0.2635,0.2719,0.2692,0.2706,0.2776,0.2786,0.2799,0.2812,0.2842,0.2847,0.2851,0.2866,0.2863,0.2862,0.2848,0.2858,0.2856,0.2814,0.2813,0.2813,0.2807,0,0,0,0,0,0,0.2623,0.2633,0.2631,0.2691,0.2707,0.2742,0.2785,0.28,0.2819,0.2826,0.2844,0.2845,0.2867,0.2864,0.286,0.2846,0.2855,0.2814,0.2814,0.2813,0.2808,0.2807,0.2806,0,0,0,0,0,0.2619,0.2621,0.263,0.2639,0.2703,0.2742,0.2752,0.2806,0.2818,0.2822,0.2848,0.2844,0.2859,0.2863,0.2858,0.2843,0.2814,0.2814,0.2813,0.2808,0.2807,0.2806,0,0,0,0,0,0,0.257,0.2631,0.2642,0.2659,0.2691,0.2756,0.2768,0.279,0.2815,0.2818,0.284,0.2844,0.2841,0.2837,0.2841,0.283,0.2834,0.2833,0.2832,0.2831,0.283,0.2833,0.2853,0,0,0,0,0,0.2555,0.2576,0.2626,0.2635,0.2649,0.2697,0.2717,0.2749,0.2782,0.2795,0.281,0.2822,0.2833,0.2829,0.2838,0.2818,0.2827,0.2805,0.2804,0.2804,0.2803,0.2813,0.2813,0.2811,0.2811,0.2811,0,0,0.2538,0.2572,0.2583,0.2626,0.2656,0.2683,0.2713,0.2738,0.276,0.2783,0.2804,0.2815,0.2829,0.2834,0.2828,0.2827,0.281,0.2803,0.2803,0.2802,0.2812,0.2812,0.2813,0.2811,0.2811,0.2811,0,0,0.253,0.254,0.2565,0.2588,0.263,0.2659,0.2658,0.2709,0.273,0.2745,0.2778,0.2784,0.2787,0.2811,0.2819,0.2806,0.281,0.2798,0.2788,0.2797,0.2798,0.2798,0.2818,0.282,0.2792,0.2792,0.2792,0,0.2501,0.2549,0.2572,0.2599,0.2624,0.2644,0.2671,0.2688,0.2731,0.2744,0.2748,0.2778,0.2782,0.2801,0.2808,0.2803,0.2814,0.2793,0.2797,0.2797,0.2798,0.2818,0.282,0.2792,0.2792,0.2792,0.2792,0,0.253,0.2557,0.2567,0.2613,0.2629,0.2653,0.2681,0.2686,0.27,0.2726,0.274,0.2758,0.2779,0.2774,0.2788,0.2792,0.2801,0.28,0.2801,0.2798,0.2819,0.2822,0.2791,0.2791,0.2792,0.2792,0,0,0.2504,0.2577,0.2584,0.2612,0.2644,0.2666,0.2673,0.2705,0.2718,0.2729,0.2752,0.2764,0.2768,0.2777,0.2787,0.2787,0.28,0.279,0.2791,0.2813,0.2829,0.2916,0.2927,0.2799,0.2799,0.28,0.2846,0,0.2526,0.2595,0.2618,0.2662,0.2699,0.2702,0.2714,0.2729,0.2737,0.2754,0.2756,0.278,0.277,0.2782,0.2779,0.2798,0.2805,0.2788,0.2827,0.2828,0.2908,0.2933,0.305,0.3108,0.2849,0.2849,0.2849,0,0.2564,0.2609,0.2672,0.2715,0.2727,0.2742,0.2764,0.2778,0.2783,0.2788,0.279,0.2794,0.28,0.2791,0.281,0.28,0.2814,0.2822,0.2824,0.2909,0.292,0.3067,0.3123,0.2991,0.2854,0.2853,0.2853,0,0.2585,0.2644,0.2703,0.2719,0.2764,0.2776,0.2787,0.2792,0.2807,0.2812,0.2822,0.282,0.2835,0.2833,0.2849,0.2829,0.2877,0.2853,0.2945,0.2951,0.3061,0.3078,0.2999,0.287,0.287,0.287,0.287,0,0.262,0.2661,0.2719,0.2754,0.2797,0.2806,0.2836,0.2839,0.2846,0.2868,0.2848,0.2872,0.2845,0.2866,0.2864,0.293,0.2893,0.2957,0.2974,0.3064,0.308,0.2979,0.2873,0.2872,0.2871,0.2871,0.2871,0,0.2639,0.2685,0.2748,0.2803,0.2819,0.2846,0.287,0.288,0.2889,0.2914,0.2918,0.2919,0.2958,0.2952,0.2966,0.2977,0.2948,0.3044,0.3161,0.3191,0.3154,0.3045,0.2872,0.2783,0.3148,0.3151,0.3153,0,0.2658,0.2702,0.2784,0.2812,0.2839,0.2876,0.2892,0.2904,0.2914,0.2954,0.2968,0.3011,0.3061,0.3128,0.3173,0.3218,0.3036,0.3326,0.3308,0.3181,0.3069,0.2861,0.2781,0.3449,0.3453,0.3457,0.346,0,0.268,0.2715,0.2762,0.283,0.2864,0.2897,0.2923,0.2941,0.2957,0.299,0.3046,0.3097,0.3219,0.3323,0.3396,0.3438,0.3199,0.3402,0.3237,0.3279,0.3078,0.2994,0.3375,0.3492,0.3488,0.3486,0.3484,0.3483,0.2674,0.2706,0.2769,0.2825,0.2864,0.2895,0.2898,0.2929,0.2961,0.2982,0.3081,0.3156,0.3388,0.3534,0.3552,0.3618,0.3399,0.3559,0.3434,0.3228,0.3146,0.3604,0.3756,0.3754,0.3753,0.3752,0.3751,0,0.2643,0.2689,0.2751,0.2801,0.2821,0.286,0.2892,0.2874,0.2894,0.298,0.3042,0.3283,0.3485,0.3625,0.3819,0.3688,0.3503,0.3517,0.3242,0.3157,0.3586,0.3607,0.3774,0.3774,0.3774,0.3774,0.3774,0.3774,0.2623,0.2663,0.2706,0.2739,0.2769,0.2753,0.276,0.2758,0.2803,0.2869,0.2967,0.3079,0.3347,0.3566,0.3601,0.3565,0.3198,0.3111,0.286,0.3183,0.3175,0.3167,0.3161,0.3231,0.323,0.2459,0.2453,0.2448]},{"header":{"parameterUnit":"m.s-1","parameterCategory":2,"la1":30.2991,"la2":30.254,"lo1":-89.0895,"lo2":-89.0444,"dy":0.0017,"dx":0.0017,"nx":28,"ny":28,"refTime":"2024-03-25T03:00:00:Z","depth":"0","parameterNumber":3,"parameterNumberName":"V-component_of_CURRENTS"},"data":[0,0,0,0,0,0,0,0,0,0,0,0,0,0,0,0,0,0,0,0,0,0,0,0,0,0,0,0,0,0,0,0,0,0,0,0,0,0,0,0,0,0,0,0,0,0,0,0,0,0,0,0,0,0,0,0,0,0,-0.202,-0.2021,0,-0.2068,-0.2068,-0.2068,-0.2084,-0.2084,-0.2084,-0.2084,-0.2008,-0.2006,-0.2004,0,0,0,0,0,0,0,0,0,0,0,0,0,-0.1959,-0.196,-0.202,-0.2021,-0.2022,-0.2068,-0.2068,-0.2068,-0.2084,-0.2084,-0.2084,-0.2084,-0.2009,-0.2006,-0.2003,0,0,0,0,0,0,0,0,0,0,0,0,0,-0.1991,-0.196,-0.2019,-0.2037,-0.204,-0.2068,-0.2068,-0.2068,-0.2083,-0.2084,-0.2084,-0.2084,-0.2009,-0.2006,-0.2003,-0.198,0,0,-0.1993,-0.1992,0,0,0,0,0,0,0,0,-0.1989,-0.1992,-0.2034,-0.2036,-0.2039,-0.2073,-0.2019,-0.2034,-0.2083,-0.2063,-0.2084,-0.2084,-0.202,-0.2016,-0.2022,-0.1976,-0.1973,-0.1993,-0.1991,-0.199,-0.1989,0,0,0,0,0,0,0,-0.1987,-0.1991,-0.2035,-0.2035,-0.2038,-0.205,-0.2054,-0.2023,-0.2035,-0.2065,-0.2067,-0.2078,-0.202,-0.2025,-0.202,-0.1972,-0.1993,-0.199,-0.1988,-0.1987,-0.1928,-0.1928,0,0,0,0,0,0,-0.1987,-0.1988,-0.2033,-0.2037,-0.2018,-0.2051,-0.2055,-0.2059,-0.2038,-0.2037,-0.2078,-0.2079,-0.203,-0.2023,-0.2017,-0.1995,-0.199,-0.1987,-0.1985,-0.1927,-0.1928,-0.1928,0,0,0,0,0,0,-0.1986,-0.199,-0.2032,-0.2017,-0.2024,-0.2052,-0.2056,-0.206,-0.2063,-0.205,-0.2046,-0.2077,-0.203,-0.2021,-0.2003,-0.1991,-0.1985,-0.1982,-0.1927,-0.1927,-0.1928,-0.1946,0,0,0,0,0,0,-0.1983,-0.1989,-0.1987,-0.2017,-0.2025,-0.2044,-0.2056,-0.2061,-0.2072,-0.2073,-0.2048,-0.2042,-0.2029,-0.2008,-0.2,-0.1987,-0.198,-0.1926,-0.1927,-0.1928,-0.1945,-0.1947,-0.1948,0,0,0,0,0,-0.1981,-0.1979,-0.1986,-0.1991,-0.2021,-0.2044,-0.2048,-0.2067,-0.2071,-0.207,-0.2067,-0.2042,-0.2006,-0.2006,-0.1996,-0.1982,-0.1926,-0.1927,-0.1928,-0.1944,-0.1946,-0.1948,0,0,0,0,0,0,-0.1948,-0.1981,-0.199,-0.1996,-0.2017,-0.2048,-0.205,-0.2063,-0.2061,-0.2057,-0.2045,-0.2038,-0.202,-0.2001,-0.2001,-0.197,-0.1962,-0.1961,-0.1977,-0.1979,-0.1981,-0.1968,-0.1977,0,0,0,0,0,-0.1941,-0.1947,-0.1981,-0.1984,-0.1993,-0.2019,-0.2029,-0.2042,-0.2051,-0.2051,-0.2042,-0.2028,-0.2015,-0.1998,-0.1984,-0.1958,-0.1944,-0.1945,-0.1947,-0.1949,-0.1933,-0.1925,-0.1924,-0.193,-0.193,-0.193,0,0,-0.193,-0.1949,-0.1952,-0.1977,-0.1993,-0.1999,-0.2024,-0.2037,-0.2039,-0.2039,-0.203,-0.2031,-0.2013,-0.1998,-0.1986,-0.1978,-0.1941,-0.195,-0.1951,-0.1934,-0.1925,-0.1925,-0.1924,-0.1931,-0.1931,-0.1931,0,0,-0.1912,-0.1925,-0.1925,-0.1939,-0.1964,-0.1982,-0.1984,-0.2013,-0.202,-0.202,-0.2027,-0.2026,-0.2,-0.1995,-0.1985,-0.1984,-0.1957,-0.1978,-0.1965,-0.1958,-0.1957,-0.1956,-0.1943,-0.1941,-0.1972,-0.1972,-0.1972,0,-0.1887,-0.1898,-0.1927,-0.1929,-0.1932,-0.1971,-0.1963,-0.1981,-0.2001,-0.1998,-0.2015,-0.2005,-0.1997,-0.1977,-0.1989,-0.1985,-0.1976,-0.1958,-0.196,-0.1958,-0.1957,-0.1944,-0.1941,-0.1973,-0.1973,-0.1973,-0.1973,0,-0.1877,-0.1877,-0.1877,-0.1889,-0.1895,-0.1897,-0.1926,-0.1932,-0.195,-0.1967,-0.1965,-0.198,-0.1967,-0.1977,-0.1982,-0.1967,-0.1963,-0.1969,-0.1952,-0.1957,-0.1944,-0.194,-0.1975,-0.1974,-0.1974,-0.1974,0,0,-0.1816,-0.1859,-0.1851,-0.1846,-0.187,-0.1869,-0.1873,-0.1882,-0.187,-0.191,-0.1894,-0.1917,-0.1934,-0.1926,-0.1941,-0.1946,-0.1945,-0.1953,-0.1953,-0.1937,-0.1923,-0.1859,-0.1849,-0.1953,-0.1952,-0.1952,-0.192,0,-0.1784,-0.1783,-0.1809,-0.1786,-0.1781,-0.1806,-0.1798,-0.181,-0.183,-0.1828,-0.1866,-0.1857,-0.1912,-0.1903,-0.1924,-0.1933,-0.1936,-0.1952,-0.1923,-0.1921,-0.186,-0.1842,-0.1706,-0.1661,-0.1917,-0.1916,-0.1916,0,-0.1742,-0.1751,-0.1734,-0.1725,-0.172,-0.171,-0.1689,-0.1692,-0.1711,-0.1723,-0.1747,-0.1775,-0.1795,-0.1839,-0.1868,-0.1876,-0.1896,-0.1915,-0.1914,-0.1839,-0.1849,-0.1696,-0.1645,-0.167,-0.1911,-0.1911,-0.1911,0,-0.1671,-0.1677,-0.1661,-0.1661,-0.1671,-0.165,-0.1646,-0.1653,-0.1634,-0.1655,-0.1637,-0.1688,-0.1683,-0.1739,-0.1794,-0.1825,-0.1816,-0.1858,-0.1819,-0.1816,-0.1683,-0.1667,-0.1642,-0.1864,-0.1864,-0.1865,-0.1865,0,-0.1611,-0.1584,-0.1627,-0.1613,-0.1568,-0.1589,-0.1535,-0.1544,-0.1536,-0.1487,-0.1574,-0.1537,-0.1656,-0.1674,-0.1751,-0.176,-0.1778,-0.1799,-0.1795,-0.1686,-0.1672,-0.1674,-0.1786,-0.1863,-0.1864,-0.1864,-0.1864,0,-0.1517,-0.1553,-0.1528,-0.1541,-0.1534,-0.1497,-0.1461,-0.1423,-0.1431,-0.1368,-0.1364,-0.1408,-0.1426,-0.1535,-0.1599,-0.1664,-0.1716,-0.1702,-0.1564,-0.1544,-0.1541,-0.1661,-0.1672,-0.1726,-0.1655,-0.1653,-0.1651,0,-0.1468,-0.1457,-0.1466,-0.1444,-0.1443,-0.1402,-0.1363,-0.1366,-0.1318,-0.1269,-0.1219,-0.1229,-0.1186,-0.1273,-0.1393,-0.1487,-0.1614,-0.1438,-0.1476,-0.1499,-0.163,-0.1711,-0.1765,-0.1315,-0.1311,-0.1308,-0.1305,0,-0.1374,-0.1386,-0.1373,-0.134,-0.1303,-0.1256,-0.12,-0.1144,-0.1117,-0.1033,-0.0913,-0.0869,-0.0952,-0.096,-0.112,-0.1209,-0.1459,-0.137,-0.1419,-0.1377,-0.1436,-0.1497,-0.1394,-0.1274,-0.1277,-0.1279,-0.1281,-0.1282,-0.1286,-0.1267,-0.1262,-0.1213,-0.1174,-0.1096,-0.1002,-0.0919,-0.0786,-0.0577,-0.061,-0.0387,-0.0502,-0.0687,-0.0897,-0.1087,-0.1251,-0.1111,-0.1258,-0.1337,-0.1374,-0.1201,-0.1066,-0.1068,-0.1069,-0.1071,-0.1072,0,-0.1167,-0.117,-0.1133,-0.107,-0.0983,-0.0998,-0.0874,-0.0734,-0.0509,-0.0259,-0.0079,0.0184,0.0004,-0.0264,-0.0598,-0.0864,-0.1039,-0.1023,-0.1099,-0.1171,-0.0988,-0.0951,-0.0751,-0.0751,-0.0751,-0.0751,-0.0751,-0.0751,-0.1105,-0.1058,-0.1056,-0.0905,-0.0845,-0.0674,-0.0576,-0.0363,-0.0135,0.0348,0.0694,0.0876,0.0854,0.0029,-0.0544,-0.0795,-0.106,-0.1107,-0.1318,-0.1165,-0.1183,-0.1201,-0.1184,-0.1037,-0.1038,-0.1367,-0.1371,-0.1373]}],[{"header":{"parameterUnit":"m.s-1","parameterCategory":2,"la1":30.2991,"la2":30.254,"lo1":-89.0895,"lo2":-89.0444,"dy":0.0017,"dx":0.0017,"nx":28,"ny":28,"refTime":"2024-03-25T03:00:00:Z","depth":"2","parameterNumber":2,"parameterNumberName":"U-component_of_CURRENTS"},"data":[0,0,0,0,0,0,0,0,0,0,0,0,0,0,0,0,0,0,0,0,0,0,0,0,0,0,0,0,0,0,0,0,0,0,0,0,0,0,0,0,0,0,0,0,0,0,0,0,0,0,0,0,0,0,0,0,0,0,0.1685,0.1685,0,0.1712,0.1712,0.1712,0.1667,0.1666,0.1665,0.1663,0.1647,0.1648,0.1649,0,0,0,0,0,0,0,0,0,0,0,0,0,0.1628,0.1629,0.1685,0.1685,0.1686,0.1712,0.1712,0.1712,0.1668,0.1666,0.1664,0.1663,0.1647,0.1648,0.1649,0,0,0,0,0,0,0,0,0,0,0,0,0,0.1652,0.1629,0.1685,0.1668,0.1667,0.1712,0.1712,0.1713,0.1668,0.1666,0.1664,0.1662,0.1647,0.1648,0.1649,0.1698,0,0,0.1653,0.1654,0,0,0,0,0,0,0,0,0.1651,0.1654,0.167,0.1669,0.1668,0.1686,0.1686,0.1706,0.1669,0.1666,0.1663,0.1661,0.1659,0.1659,0.1667,0.1697,0.1697,0.1653,0.1654,0.1654,0.1655,0,0,0,0,0,0,0,0.1649,0.1653,0.1694,0.1671,0.167,0.1671,0.1672,0.169,0.1671,0.1666,0.1663,0.167,0.1657,0.1666,0.1666,0.1696,0.1653,0.1654,0.1655,0.1655,0.1732,0.1733,0,0,0,0,0,0,0.165,0.1651,0.1693,0.1695,0.1656,0.1674,0.1674,0.1681,0.1672,0.167,0.1671,0.1668,0.1665,0.1665,0.1665,0.1708,0.1654,0.1656,0.1656,0.1731,0.1732,0.1734,0,0,0,0,0,0,0.1649,0.1654,0.1692,0.1675,0.168,0.1677,0.1685,0.1682,0.1685,0.1677,0.1673,0.1675,0.1663,0.1663,0.1684,0.1707,0.1656,0.1657,0.1729,0.1731,0.1733,0.1802,0,0,0,0,0,0,0.1647,0.1653,0.1663,0.1675,0.1681,0.1732,0.1687,0.1685,0.1694,0.1689,0.168,0.1676,0.1661,0.1682,0.1685,0.1708,0.1658,0.1728,0.173,0.1732,0.1798,0.1806,0.1813,0,0,0,0,0,0.1645,0.1667,0.1663,0.1669,0.1693,0.1734,0.1738,0.1726,0.1696,0.1717,0.1701,0.1676,0.1699,0.1685,0.1688,0.1711,0.1726,0.1729,0.1732,0.1795,0.1805,0.1813,0,0,0,0,0,0,0.1655,0.1666,0.1661,0.1687,0.1714,0.1727,0.1745,0.1734,0.174,0.1726,0.1703,0.1701,0.1726,0.1714,0.1699,0.1739,0.1705,0.1709,0.1752,0.1761,0.1768,0.1779,0.1659,0,0,0,0,0,0.1663,0.1675,0.1697,0.1721,0.1735,0.1741,0.1754,0.175,0.1755,0.1754,0.1744,0.1735,0.1745,0.1747,0.1755,0.1786,0.179,0.1799,0.1806,0.1813,0.1823,0.1842,0.1853,0.1743,0.1743,0.1743,0,0,0.1673,0.1682,0.1689,0.1724,0.1739,0.1775,0.1743,0.1773,0.1796,0.1755,0.1777,0.1767,0.176,0.1789,0.1799,0.1779,0.1852,0.1816,0.1822,0.1829,0.1847,0.1857,0.1867,0.1745,0.1745,0.1744,0,0,0.1707,0.1712,0.1737,0.1764,0.1795,0.1804,0.1814,0.1831,0.1832,0.1862,0.1832,0.1838,0.1851,0.185,0.1851,0.1908,0.1894,0.1903,0.1948,0.1967,0.1976,0.1984,0.2031,0.2042,0.1903,0.1903,0.1903,0,0.1721,0.1751,0.1756,0.1794,0.182,0.1818,0.1861,0.1876,0.1893,0.1906,0.1875,0.1895,0.1882,0.192,0.193,0.1926,0.194,0.1915,0.1977,0.1985,0.1992,0.2038,0.2049,0.1907,0.1907,0.1906,0.1906,0,0.1773,0.1803,0.1826,0.1865,0.1899,0.1937,0.1961,0.1985,0.1976,0.1982,0.2013,0.1997,0.2004,0.2001,0.1981,0.2027,0.2025,0.1988,0.1955,0.2008,0.2052,0.2063,0.1912,0.1911,0.191,0.1909,0,0,0.1785,0.1847,0.1855,0.1885,0.1936,0.1968,0.2021,0.2069,0.2094,0.21,0.2133,0.2139,0.2114,0.2114,0.209,0.21,0.2163,0.2065,0.2065,0.2114,0.2231,0.2292,0.231,0.2132,0.2134,0.2135,0.2253,0,0.1824,0.1895,0.192,0.1993,0.2032,0.2061,0.2109,0.2149,0.2165,0.2197,0.2189,0.2204,0.2163,0.2157,0.2169,0.2157,0.2191,0.2136,0.2171,0.2173,0.2222,0.2324,0.2054,0.214,0.2263,0.2265,0.2266,0,0.1859,0.1904,0.1976,0.205,0.2071,0.2114,0.2184,0.2229,0.2279,0.2284,0.2303,0.229,0.2316,0.2257,0.2298,0.2264,0.2263,0.2254,0.2258,0.2297,0.2255,0.2102,0.2155,0.2285,0.2283,0.2282,0.2281,0,0.1843,0.1938,0.1991,0.2019,0.2106,0.2147,0.2192,0.2253,0.2284,0.2336,0.2347,0.2381,0.238,0.2392,0.2385,0.2341,0.2433,0.2365,0.2435,0.2439,0.2209,0.2192,0.2412,0.2412,0.2412,0.2412,0.2411,0,0.1854,0.1898,0.199,0.2016,0.2087,0.2152,0.2214,0.226,0.2318,0.2354,0.238,0.2412,0.2407,0.2452,0.2442,0.2502,0.2487,0.2483,0.2484,0.2231,0.2216,0.2322,0.231,0.2416,0.2415,0.2414,0.2414,0,0.1809,0.1871,0.1936,0.2038,0.2075,0.212,0.2209,0.2238,0.2308,0.2356,0.237,0.2441,0.2522,0.2551,0.2587,0.2579,0.2621,0.2642,0.2376,0.2346,0.26,0.259,0.274,0.2743,0.2746,0.2748,0.275,0,0.1791,0.1821,0.1927,0.1954,0.1996,0.2074,0.2112,0.221,0.2237,0.2374,0.2383,0.2505,0.2568,0.2696,0.2682,0.2734,0.2746,0.2548,0.2424,0.2654,0.2639,0.2625,0.2611,0.2139,0.2136,0.2134,0.2132,0,0.1751,0.1783,0.1823,0.1881,0.193,0.198,0.2049,0.2074,0.2189,0.2258,0.2369,0.2454,0.259,0.2535,0.2635,0.262,0.2521,0.2506,0.2789,0.2131,0.2106,0.2086,0.2088,0.2109,0.2111,0.2113,0.2114,0.2115,0.1707,0.171,0.1754,0.1797,0.1846,0.1862,0.188,0.1945,0.2012,0.2083,0.225,0.2273,0.2327,0.2332,0.2346,0.235,0.2504,0.2364,0.2363,0.2366,0.2308,0.2293,0.2321,0.2324,0.2327,0.233,0.2332,0,0.1643,0.1642,0.1665,0.1706,0.1705,0.1775,0.1816,0.1779,0.1824,0.1905,0.1997,0.1821,0.1861,0.1941,0.19,0.1998,0.1879,0.1952,0.172,0.1746,0.1768,0.167,0.1518,0.1516,0.1514,0.1512,0,0,0.1609,0.1584,0.1585,0.1561,0.1588,0.1573,0.1581,0.1526,0.1523,0.1478,0.147,0.1633,0.1759,0.1516,0.1588,0.1534,0.1603,0.1488,0.2129,0.1869,0.1887,0.2,0.1881,0,0,0,0,0]},{"header":{"parameterUnit":"m.s-1","parameterCategory":2,"la1":30.2991,"la2":30.254,"lo1":-89.0895,"lo2":-89.0444,"dy":0.0017,"dx":0.0017,"nx":28,"ny":28,"refTime":"2024-03-25T03:00:00:Z","depth":"2","parameterNumber":3,"parameterNumberName":"V-component_of_CURRENTS"},"data":[0,0,0,0,0,0,0,0,0,0,0,0,0,0,0,0,0,0,0,0,0,0,0,0,0,0,0,0,0,0,0,0,0,0,0,0,0,0,0,0,0,0,0,0,0,0,0,0,0,0,0,0,0,0,0,0,0,0,0.0338,0.0337,0,0.0183,0.0181,0.0179,0.0031,0.0029,0.0028,0.0026,-0.0226,-0.0231,-0.0236,0,0,0,0,0,0,0,0,0,0,0,0,0,0.0449,0.0448,0.0339,0.0337,0.0335,0.0183,0.0181,0.0179,0.0031,0.0029,0.0027,0.0025,-0.0224,-0.023,-0.0236,0,0,0,0,0,0,0,0,0,0,0,0,0,0.0357,0.0448,0.0339,0.0245,0.0235,0.0184,0.0181,0.0178,0.0032,0.0029,0.0027,0.0024,-0.0222,-0.0229,-0.0237,-0.0234,0,0,-0.026,-0.0264,0,0,0,0,0,0,0,0,0.0362,0.0352,0.026,0.0251,0.024,0.0126,0.0128,0.0036,0.0032,0.0107,0.0026,0.0023,-0.0114,-0.013,-0.0156,-0.0246,-0.0256,-0.0261,-0.0266,-0.0269,-0.0271,0,0,0,0,0,0,0,0.0369,0.0358,0.0275,0.0259,0.0247,0.019,0.0175,0.011,0.0009,0.01,0.0089,0.0076,-0.0121,-0.0148,-0.0163,-0.026,-0.0261,-0.0268,-0.0272,-0.0275,-0.0435,-0.0435,0,0,0,0,0,0,0.0398,0.0365,0.028,0.027,0.0299,0.0191,0.0173,0.0163,0.0011,-0.0013,0.0079,0.007,-0.0133,-0.0154,-0.0172,-0.0249,-0.0269,-0.0276,-0.0281,-0.0436,-0.0435,-0.0435,0,0,0,0,0,0,0.0401,0.0392,0.0286,0.0315,0.0298,0.0192,0.0182,0.0162,0.0107,-0.0003,-0.003,0.0042,-0.0136,-0.0162,-0.024,-0.0257,-0.028,-0.0287,-0.0436,-0.0435,-0.0435,-0.0356,0,0,0,0,0,0,0.0405,0.0395,0.0388,0.0318,0.0297,0.025,0.0184,0.016,0.0106,0.0092,-0.0042,-0.0067,-0.014,-0.0228,-0.0247,-0.0268,-0.0293,-0.0436,-0.0436,-0.0435,-0.0359,-0.0352,-0.0347,0,0,0,0,0,0.041,0.041,0.0389,0.0377,0.0295,0.0251,0.0235,0.015,0.0107,0.009,0.0003,-0.0064,-0.0238,-0.0233,-0.0257,-0.028,-0.0437,-0.0436,-0.0435,-0.0361,-0.0354,-0.0347,0,0,0,0,0,0,0.0446,0.0393,0.0368,0.0349,0.0305,0.0226,0.0198,0.0151,0.007,0.0045,-0.0058,-0.0088,-0.0162,-0.0221,-0.0213,-0.0321,-0.0349,-0.0352,-0.0285,-0.0278,-0.0273,-0.0258,-0.0299,0,0,0,0,0,0.046,0.0443,0.0391,0.0373,0.0355,0.0279,0.0246,0.0194,0.0121,0.008,-0.0009,-0.01,-0.0169,-0.0224,-0.0292,-0.035,-0.0383,-0.038,-0.0374,-0.0368,-0.037,-0.0411,-0.0408,-0.0432,-0.0432,-0.0432,0,0,0.0464,0.0436,0.0423,0.038,0.0333,0.0309,0.0251,0.0203,0.0169,0.0068,-0.0013,-0.0082,-0.0176,-0.0242,-0.0282,-0.0303,-0.0375,-0.0367,-0.0362,-0.0367,-0.041,-0.0407,-0.0405,-0.0431,-0.0431,-0.0432,0,0,0.0475,0.0449,0.044,0.0412,0.0358,0.0319,0.0309,0.023,0.0179,0.0113,0.0035,-0.0031,-0.0155,-0.0215,-0.0262,-0.026,-0.0334,-0.0296,-0.0272,-0.031,-0.0308,-0.0307,-0.0326,-0.0328,-0.0303,-0.0303,-0.0303,0,0.0484,0.0467,0.0429,0.0418,0.0392,0.0329,0.0313,0.0266,0.0168,0.0134,0.0092,-0.006,-0.0137,-0.0206,-0.0215,-0.0249,-0.0281,-0.0291,-0.0302,-0.0302,-0.0302,-0.0322,-0.0325,-0.0299,-0.03,-0.03,-0.03,0,0.0492,0.0473,0.0467,0.0434,0.0407,0.0383,0.0328,0.029,0.0226,0.017,0.0088,-0.0003,-0.01,-0.0128,-0.0183,-0.0228,-0.0251,-0.0279,-0.0316,-0.0295,-0.0317,-0.0321,-0.0293,-0.0295,-0.0296,-0.0297,0,0,0.053,0.0481,0.0475,0.0466,0.0412,0.0395,0.0356,0.0306,0.0276,0.0187,0.014,0.0032,-0.0026,-0.008,-0.0149,-0.0187,-0.0211,-0.0241,-0.0245,-0.0253,-0.0291,-0.0203,-0.02,-0.0251,-0.0251,-0.0252,-0.0298,0,0.0544,0.053,0.0494,0.0478,0.0475,0.0418,0.0393,0.0339,0.0274,0.0219,0.0134,0.0054,-0.0006,-0.0063,-0.0104,-0.0189,-0.0223,-0.0196,-0.0317,-0.032,-0.024,-0.0202,-0.0206,-0.0239,-0.0303,-0.0304,-0.0304,0,0.0575,0.0561,0.0544,0.0514,0.0505,0.0475,0.0429,0.0393,0.0316,0.0261,0.0178,0.0102,0.002,-0.0029,-0.0148,-0.0135,-0.0211,-0.0263,-0.0266,-0.0218,-0.024,-0.0277,-0.0245,-0.0312,-0.0311,-0.0311,-0.031,0,0.0645,0.0603,0.059,0.0578,0.0532,0.0502,0.0461,0.0394,0.0368,0.0268,0.0237,0.0131,0.0061,-0.0032,-0.0148,-0.0166,-0.0255,-0.0293,-0.0276,-0.0271,-0.0314,-0.031,-0.0368,-0.0368,-0.0368,-0.0367,-0.0367,0,0.0703,0.0694,0.0612,0.0614,0.0604,0.0538,0.0508,0.0462,0.0387,0.0379,0.0247,0.0238,0.005,-0.0022,-0.0122,-0.0192,-0.024,-0.0257,-0.0273,-0.0282,-0.0274,-0.0377,-0.0378,-0.0369,-0.0369,-0.0368,-0.0368,0,0.08,0.0739,0.0744,0.0675,0.0642,0.0636,0.0547,0.0538,0.0443,0.0428,0.0394,0.0291,0.021,0.006,-0.0088,-0.0152,-0.0232,-0.0252,-0.0231,-0.0241,-0.0232,-0.0228,-0.0233,-0.0231,-0.0228,-0.0226,-0.0225,0,0.0848,0.0852,0.0805,0.0795,0.0753,0.0705,0.0683,0.0581,0.0583,0.0501,0.0533,0.0415,0.0434,0.0264,0.0075,-0.007,-0.0147,-0.0169,-0.0187,-0.0201,-0.0217,-0.0217,-0.0216,-0.0225,-0.0224,-0.0222,-0.0221,0,0.095,0.0925,0.0933,0.0908,0.0876,0.0856,0.081,0.0849,0.0762,0.0744,0.0758,0.0757,0.0578,0.0445,0.0226,0.0116,-0.014,-0.014,-0.0192,-0.0226,-0.0188,-0.0205,-0.0206,-0.021,-0.0211,-0.0212,-0.0213,-0.0213,0.1023,0.1057,0.1035,0.1024,0.0989,0.1002,0.1039,0.103,0.1062,0.109,0.104,0.1018,0.0789,0.0559,0.0309,-0.0014,0.0022,-0.0096,-0.0103,-0.0111,-0.0069,-0.0025,-0.001,-0.001,-0.001,-0.001,-0.001,0,0.1094,0.1099,0.1123,0.1109,0.1112,0.1036,0.1112,0.1221,0.1313,0.1293,0.1303,0.1095,0.0952,0.0631,0.0192,0.0,-0.0091,-0.0103,-0.0194,-0.0199,-0.0206,-0.0174,-0.0141,-0.0142,-0.0144,-0.0145,0,0,0.1116,0.1173,0.1191,0.1206,0.1167,0.1198,0.1267,0.1448,0.1513,0.1537,0.1423,0.1454,0.1064,0.0728,0.0396,0.0109,-0.0001,0.0049,0.0187,0.0117,0.0112,-0.0158,-0.0107,0,0,0,0,0]}],[{"header":{"parameterUnit":"m.s-1","parameterCategory":2,"la1":30.2991,"la2":30.254,"lo1":-89.0895,"lo2":-89.0444,"dy":0.0017,"dx":0.0017,"nx":28,"ny":28,"refTime":"2024-03-25T03:00:00:Z","depth":"4","parameterNumber":2,"parameterNumberName":"U-component_of_CURRENTS"},"data":[0,0,0,0,0,0,0,0,0,0,0,0,0,0,0,0,0,0,0,0,0,0,0,0,0,0,0,0,0,0,0,0,0,0,0,0,0,0,0,0,0,0,0,0,0,0,0,0,0,0,0,0,0,0,0,0,0,0,0.0615,0.0616,0,0.0661,0.0661,0.0661,0.0697,0.0697,0.0698,0.0698,0.0793,0.0795,0.0797,0,0,0,0,0,0,0,0,0,0,0,0,0,0.0543,0.0544,0.0615,0.0616,0.0617,0.066,0.0661,0.0661,0.0697,0.0697,0.0698,0.0699,0.0793,0.0795,0.0797,0,0,0,0,0,0,0,0,0,0,0,0,0,0.0578,0.0545,0.0615,0.0641,0.0644,0.066,0.0661,0.0661,0.0697,0.0697,0.0698,0.0699,0.0792,0.0795,0.0798,0.08,0,0,0.0807,0.0808,0,0,0,0,0,0,0,0,0.0576,0.058,0.0637,0.064,0.0643,0.0676,0.0671,0.0711,0.0696,0.0674,0.0698,0.0699,0.076,0.0765,0.0768,0.0804,0.0808,0.0807,0.0809,0.081,0.0811,0,0,0,0,0,0,0,0.0574,0.0579,0.0631,0.0638,0.0641,0.0646,0.0651,0.0678,0.0711,0.0676,0.068,0.0688,0.0761,0.0765,0.0771,0.081,0.0807,0.081,0.0812,0.0813,0.0917,0.0918,0,0,0,0,0,0,0.0573,0.0576,0.063,0.0633,0.0613,0.0646,0.0653,0.0663,0.071,0.0718,0.0687,0.0689,0.0759,0.0767,0.0774,0.0857,0.081,0.0813,0.0815,0.0916,0.0917,0.0918,0,0,0,0,0,0,0.0571,0.0577,0.0628,0.0607,0.0614,0.0647,0.0658,0.0663,0.0683,0.0718,0.0727,0.0703,0.076,0.077,0.081,0.0859,0.0815,0.0817,0.0915,0.0916,0.0918,0.0974,0,0,0,0,0,0,0.0569,0.0576,0.0589,0.0607,0.0615,0.0648,0.0657,0.0663,0.0687,0.069,0.0734,0.0743,0.0762,0.0805,0.0812,0.0862,0.082,0.0914,0.0916,0.0917,0.0971,0.0977,0.0983,0,0,0,0,0,0.0566,0.0581,0.0589,0.0596,0.063,0.0649,0.0654,0.0678,0.0687,0.0697,0.0726,0.0742,0.0822,0.0808,0.0817,0.0868,0.0913,0.0915,0.0917,0.0968,0.0976,0.0982,0,0,0,0,0,0,0.0562,0.0587,0.0596,0.062,0.0638,0.0656,0.0671,0.0683,0.0711,0.0724,0.0748,0.0759,0.0822,0.0823,0.0806,0.09,0.0873,0.0877,0.0909,0.0916,0.0922,0.0902,0.0822,0,0,0,0,0,0.0565,0.0583,0.0603,0.0625,0.0631,0.0651,0.0664,0.0683,0.0707,0.0721,0.0749,0.0785,0.0833,0.0855,0.0892,0.0931,0.0939,0.097,0.0976,0.0981,0.0969,0.1044,0.1056,0.0925,0.0925,0.0925,0,0,0.0571,0.0587,0.06,0.0625,0.0639,0.0658,0.0661,0.0689,0.0722,0.0728,0.078,0.0812,0.0848,0.0907,0.0934,0.0916,0.1017,0.0984,0.0988,0.0973,0.1048,0.1061,0.1072,0.0927,0.0926,0.0926,0,0,0.0584,0.0604,0.0618,0.0627,0.0655,0.0675,0.0684,0.071,0.0741,0.079,0.0813,0.0858,0.0921,0.0953,0.098,0.1032,0.1052,0.1055,0.1067,0.1141,0.1153,0.1163,0.1171,0.1182,0.1052,0.1052,0.1052,0,0.059,0.0611,0.0626,0.0634,0.0654,0.0682,0.0704,0.0737,0.0778,0.0812,0.0819,0.092,0.0946,0.1021,0.1036,0.1049,0.1071,0.1043,0.1151,0.1161,0.1171,0.1177,0.1188,0.1055,0.1054,0.1054,0.1054,0,0.0601,0.0622,0.063,0.0657,0.0682,0.0704,0.0748,0.0786,0.0833,0.0871,0.0959,0.0991,0.105,0.1072,0.107,0.1153,0.1139,0.1159,0.1136,0.1188,0.119,0.1201,0.1059,0.1058,0.1057,0.1056,0,0,0.0602,0.0633,0.0637,0.0653,0.0696,0.0719,0.0783,0.085,0.0903,0.096,0.1031,0.1099,0.1119,0.1146,0.1161,0.12,0.1277,0.1201,0.1204,0.1211,0.1405,0.1321,0.1324,0.1334,0.1337,0.1339,0.1372,0,0.0607,0.0631,0.0655,0.0696,0.0712,0.0759,0.0814,0.0883,0.0958,0.1031,0.109,0.1168,0.1153,0.1191,0.1234,0.128,0.1311,0.1263,0.1349,0.135,0.1274,0.1337,0.1347,0.138,0.1382,0.1384,0.1385,0,0.0605,0.0627,0.0662,0.0717,0.073,0.0768,0.087,0.0924,0.1033,0.1093,0.1175,0.1228,0.1297,0.1282,0.1379,0.1357,0.1376,0.1393,0.1397,0.1303,0.1287,0.1321,0.1404,0.1403,0.1401,0.14,0.1399,0,0.0591,0.0634,0.0669,0.068,0.0746,0.0789,0.0842,0.0947,0.1004,0.1139,0.1193,0.13,0.1364,0.142,0.146,0.144,0.1553,0.1541,0.1471,0.1463,0.1502,0.149,0.1605,0.1605,0.1605,0.1605,0.1605,0,0.0578,0.0602,0.0665,0.0676,0.073,0.0787,0.0869,0.0937,0.1042,0.1101,0.122,0.1277,0.141,0.1487,0.1498,0.1518,0.16,0.1471,0.1481,0.1519,0.151,0.1508,0.1496,0.1606,0.1606,0.1606,0.1606,0,0.0542,0.058,0.0614,0.069,0.0718,0.0758,0.0857,0.0904,0.1019,0.11,0.1144,0.1299,0.14,0.1493,0.1598,0.1566,0.1593,0.1576,0.1584,0.1594,0.1428,0.1419,0.1487,0.1485,0.1483,0.1481,0.148,0,0.0522,0.0535,0.0609,0.0628,0.0662,0.0732,0.0766,0.0881,0.0929,0.1082,0.1101,0.1258,0.1344,0.142,0.153,0.1578,0.156,0.1558,0.1496,0.1421,0.1424,0.1418,0.1411,0.1476,0.1476,0.1475,0.1475,0,0.0476,0.0506,0.0535,0.0574,0.0611,0.0642,0.0707,0.074,0.0859,0.097,0.1046,0.113,0.1247,0.1358,0.1436,0.1454,0.1557,0.1536,0.1539,0.1481,0.1409,0.1413,0.1409,0.1468,0.1469,0.147,0.147,0,0.0441,0.0444,0.048,0.0509,0.0537,0.0532,0.059,0.0645,0.0709,0.088,0.0902,0.1062,0.121,0.1292,0.1346,0.1392,0.1358,0.1306,0.132,0.1328,0.1271,0.1156,0.115,0,0,0,0,0,0.0402,0.039,0.0408,0.0422,0.044,0.0452,0.0528,0.059,0.0717,0.0731,0.0817,0.0912,0.1035,0.1135,0.1153,0.1281,0.1363,0.1296,0.1307,0.143,0.1438,0.1391,0,0,0,0,0,0,0.0372,0.0378,0.038,0.0331,0.0321,0.0324,0.0365,0.0452,0.0486,0.0633,0.0715,0.083,0.0979,0.1001,0.1122,0.1153,0.1137,0.1404,0.1402,0.1425,0.1432,0.1439,0.1394,0,0,0,0,0]},{"header":{"parameterUnit":"m.s-1","parameterCategory":2,"la1":30.2991,"la2":30.254,"lo1":-89.0895,"lo2":-89.0444,"dy":0.0017,"dx":0.0017,"nx":28,"ny":28,"refTime":"2024-03-25T03:00:00:Z","depth":"4","parameterNumber":3,"parameterNumberName":"V-component_of_CURRENTS"},"data":[0,0,0,0,0,0,0,0,0,0,0,0,0,0,0,0,0,0,0,0,0,0,0,0,0,0,0,0,0,0,0,0,0,0,0,0,0,0,0,0,0,0,0,0,0,0,0,0,0,0,0,0,0,0,0,0,0,0,0.0585,0.0585,0,0.0581,0.0581,0.0581,0.057,0.0569,0.0569,0.0569,0.0568,0.0568,0.0568,0,0,0,0,0,0,0,0,0,0,0,0,0,0.0564,0.0564,0.0584,0.0585,0.0585,0.0581,0.0581,0.0581,0.057,0.0569,0.0569,0.0569,0.0568,0.0568,0.0568,0,0,0,0,0,0,0,0,0,0,0,0,0,0.0566,0.0564,0.0584,0.058,0.058,0.0581,0.0581,0.0581,0.057,0.0569,0.0569,0.0569,0.0568,0.0568,0.0568,0.0571,0,0,0.0568,0.0568,0,0,0,0,0,0,0,0,0.0566,0.0567,0.0581,0.0581,0.058,0.0578,0.0574,0.0578,0.057,0.0571,0.0569,0.0569,0.0573,0.0573,0.0569,0.0571,0.057,0.0568,0.0568,0.0568,0.0568,0,0,0,0,0,0,0,0.0566,0.0567,0.0581,0.0581,0.0581,0.0573,0.0573,0.0574,0.0571,0.0571,0.0571,0.0574,0.0572,0.0569,0.0569,0.057,0.0568,0.0568,0.0568,0.0568,0.0591,0.0592,0,0,0,0,0,0,0.0572,0.0567,0.0581,0.0581,0.0575,0.0574,0.0574,0.0577,0.0571,0.0571,0.0574,0.0573,0.0569,0.0569,0.0569,0.0596,0.0568,0.0568,0.0568,0.0591,0.0591,0.0592,0,0,0,0,0,0,0.0571,0.0573,0.0581,0.0575,0.0576,0.0574,0.0578,0.0577,0.0582,0.0574,0.0573,0.0581,0.0569,0.0569,0.0582,0.0595,0.0568,0.0568,0.059,0.0591,0.0592,0.0635,0,0,0,0,0,0,0.0571,0.0573,0.0584,0.0576,0.0577,0.0591,0.0578,0.0577,0.0584,0.0584,0.058,0.0579,0.0569,0.0582,0.0582,0.0595,0.0569,0.0589,0.059,0.0591,0.0633,0.0637,0.0641,0,0,0,0,0,0.057,0.0586,0.0584,0.0586,0.059,0.0592,0.0592,0.0588,0.0585,0.0591,0.0591,0.0579,0.0589,0.0583,0.0583,0.0596,0.0589,0.059,0.0591,0.0631,0.0636,0.0641,0,0,0,0,0,0,0.0589,0.0586,0.0584,0.06,0.06,0.0591,0.0601,0.0596,0.0599,0.0605,0.059,0.059,0.0605,0.0595,0.0589,0.0605,0.0585,0.0587,0.0615,0.062,0.0624,0.0624,0.0569,0,0,0,0,0,0.0597,0.0607,0.0601,0.0617,0.0618,0.0611,0.0614,0.0612,0.0612,0.0613,0.0608,0.0606,0.0609,0.0611,0.0611,0.0622,0.0595,0.0629,0.0633,0.0636,0.0635,0.0606,0.0607,0.0596,0.0596,0.0596,0,0,0.0613,0.0612,0.062,0.0622,0.0622,0.0632,0.0612,0.0625,0.0639,0.0614,0.0633,0.0624,0.0616,0.0628,0.0634,0.0623,0.0625,0.0638,0.0641,0.0638,0.0607,0.0608,0.0609,0.0597,0.0597,0.0597,0,0,0.0646,0.0645,0.0663,0.0661,0.0665,0.066,0.0666,0.0662,0.0665,0.0683,0.0666,0.0661,0.0672,0.0658,0.0656,0.0681,0.0649,0.0685,0.0704,0.0676,0.0676,0.0676,0.0641,0.0637,0.0685,0.0685,0.0685,0,0.0667,0.0685,0.067,0.0682,0.0692,0.0675,0.0699,0.0697,0.0699,0.0704,0.07,0.0695,0.0685,0.0686,0.0693,0.069,0.0667,0.0688,0.068,0.068,0.0679,0.0643,0.0638,0.0688,0.0687,0.0687,0.0687,0,0.0705,0.0722,0.0733,0.0743,0.075,0.0767,0.0762,0.077,0.0773,0.0767,0.0773,0.075,0.0745,0.0738,0.0727,0.0717,0.07,0.069,0.0667,0.0683,0.0644,0.0638,0.0691,0.069,0.0689,0.0689,0,0,0.0746,0.0759,0.0766,0.0781,0.0785,0.0797,0.0819,0.0831,0.0844,0.0834,0.0843,0.083,0.0804,0.0798,0.077,0.0738,0.071,0.0716,0.0713,0.0679,0.0642,0.0601,0.0591,0.0701,0.0701,0.07,0.0617,0,0.0785,0.0824,0.0822,0.0865,0.0883,0.0875,0.0895,0.0901,0.0901,0.09,0.0865,0.0867,0.0832,0.083,0.0791,0.0733,0.0698,0.0733,0.0634,0.063,0.0591,0.0584,0.0698,0.0612,0.0611,0.061,0.0609,0,0.082,0.0844,0.0895,0.0924,0.0932,0.0959,0.0986,0.1,0.0986,0.0985,0.0964,0.0932,0.0887,0.0857,0.0755,0.0781,0.0718,0.0664,0.066,0.0602,0.0579,0.0594,0.0599,0.06,0.0601,0.0601,0.0602,0,0.085,0.0893,0.0941,0.095,0.0978,0.1009,0.1029,0.1033,0.1049,0.1037,0.104,0.0979,0.0963,0.0867,0.0759,0.0761,0.0637,0.0626,0.0526,0.0522,0.0565,0.0566,0.0554,0.0554,0.0554,0.0555,0.0555,0,0.0875,0.0911,0.0964,0.0985,0.1043,0.1054,0.1107,0.1109,0.1119,0.1129,0.1086,0.1073,0.0968,0.0884,0.077,0.0627,0.0647,0.0522,0.0496,0.0586,0.059,0.0561,0.0563,0.0552,0.0552,0.0553,0.0553,0,0.0878,0.0915,0.0968,0.1029,0.1056,0.1096,0.1159,0.1184,0.1193,0.1202,0.1203,0.1153,0.1045,0.0914,0.0763,0.0656,0.0513,0.0461,0.0562,0.0545,0.0413,0.0418,0.0334,0.0332,0.033,0.0329,0.0327,0,0.0874,0.0906,0.0999,0.1036,0.1068,0.1136,0.1179,0.1219,0.1241,0.1238,0.1236,0.1165,0.1104,0.0854,0.0726,0.0501,0.0471,0.0393,0.0399,0.0406,0.039,0.0398,0.0405,0.0324,0.0324,0.0323,0.0323,0,0.0857,0.0903,0.0947,0.1036,0.1101,0.1167,0.1231,0.1257,0.1286,0.1298,0.124,0.1122,0.1005,0.0837,0.0674,0.0512,0.0434,0.0373,0.0376,0.0381,0.0393,0.0381,0.039,0.0317,0.0317,0.0318,0.0318,0,0.084,0.0872,0.0946,0.1017,0.1098,0.1167,0.1213,0.1238,0.1267,0.1259,0.1241,0.1116,0.1066,0.0843,0.0683,0.0526,0.0482,0.0415,0.0415,0.042,0.0467,0.0496,0.0423,0,0,0,0,0,0.0811,0.0853,0.0918,0.1005,0.1084,0.1144,0.1225,0.1265,0.1305,0.1253,0.1243,0.112,0.0896,0.0825,0.0657,0.065,0.0462,0.0447,0.0386,0.0281,0.0288,0.0325,0,0,0,0,0,0,0.0794,0.0856,0.0903,0.0977,0.1038,0.1133,0.1195,0.1229,0.1204,0.1215,0.1108,0.1053,0.0854,0.0985,0.0645,0.0604,0.0533,0.0356,0.0351,0.0277,0.0283,0.0289,0.033,0,0,0,0,0]}]]